Weather History for Mineola, TX

Change the Weather History Date:

Tuesday, April 23, 2013

  Actual Average (KTYR) Record (KTYR)
Temperature  
Mean Temperature 60 °F 67 °F  
Max Temperature 75 °F 77 °F 92 °F (1925)
Min Temperature 46 °F 57 °F 36 °F (1982)
Degree Days  
Heating Degree Days 4 2  
Month to date heating degree days 90  
Since 1 July heating degree days 2255  
Cooling Degree Days 0 3  
Month to date cooling degree days 50  
Year to date cooling degree days 83  
Growing Degree Days 10 (Base 50)    
Moisture  
Dew Point 54 °F    
Average Humidity 80    
Maximum Humidity 94    
Minimum Humidity 64    
Precipitation  
Precipitation 0.00 in 0.12 in 3.37 in (1966)
Month to date precipitation 2.28  
Year to date precipitation 13.27  
Snow  
Snow 0.00 in - - ()
Month to date snowfall  
Since 1 July snowfall  
Snow Depth -    
Sea Level Pressure  
Sea Level Pressure 29.98 in    
Wind  
Wind Speed 7 mph (SW)    
Max Wind Speed 14 mph    
Max Gust Speed 24 mph    
Visibility 10 miles    
Events      
T = Trace of Precipitation, MM = Missing Value Source: NWS Daily Summary

Daily Weather History Graph

Daily Weather History Graph

Search for Another Location

Airport:

Trip Planner

Search our weather history database for the weather conditions in past years. The results will help you decide how hot, cold, wet, or windy it might be!

Date:

Astronomy

Apr. 23, 2013 Rise Set
Actual Time 6:42 AM CDT 7:58 PM CDT
Civil Twilight 6:17 AM CDT 8:23 PM CDT
Nautical Twilight 5:46 AM CDT 8:54 PM CDT
Astronomical Twilight 5:14 AM CDT 9:26 PM CDT
Moon 5:59 PM CDT (4/23) 5:04 AM CDT (4/23)
Length of Visible Light 14h 06m
Length of Day
13h 15m
Waxing Gibbous, 94% of the Moon is Illuminated
Apr 23
Waxing Gibbous
Apr 25
Full
May 2
Last Quarter
May 9
New
May 17
First Quarter

Hourly Weather History & Observations

Time (CDT) Temp. Windchill Dew Point Humidity Pressure Visibility Wind Dir Wind Speed Gust Speed Precip Events Conditions
12:15 AM 66.2 °F - 53.6 °F 64% 29.93 in 10.0 mi SE 4.6 mph - N/A   Clear
12:35 AM 64.4 °F - 53.6 °F 68% 29.93 in 10.0 mi ESE 3.5 mph - N/A   Clear
12:55 AM 64.4 °F - 53.6 °F 68% 29.93 in 10.0 mi SE 4.6 mph - N/A   Clear
1:15 AM 64.4 °F - 53.6 °F 68% 29.93 in 10.0 mi SE 5.8 mph - N/A   Clear
1:35 AM 64.4 °F - 53.6 °F 68% 29.93 in 10.0 mi SSE 8.1 mph - N/A   Clear
1:55 AM 64.4 °F - 53.6 °F 68% 29.92 in 10.0 mi SSE 8.1 mph - N/A   Clear
2:15 AM 64.4 °F - 55.4 °F 73% 29.91 in 10.0 mi SSE 8.1 mph - N/A   Clear
2:35 AM 64.4 °F - 55.4 °F 73% 29.89 in 10.0 mi South 10.4 mph 16.1 mph N/A   Clear
2:55 AM 64.4 °F - 55.4 °F 73% 29.88 in 10.0 mi SSE 11.5 mph 17.3 mph N/A   Clear
3:15 AM 62.6 °F - 55.4 °F 77% 29.87 in 10.0 mi SSE 6.9 mph - N/A   Clear
3:35 AM 62.6 °F - 55.4 °F 77% 29.87 in 10.0 mi SSE 6.9 mph - N/A   Clear
3:55 AM 62.6 °F - 55.4 °F 77% 29.87 in 10.0 mi SSE 5.8 mph - N/A   Clear
4:15 AM 62.6 °F - 55.4 °F 77% 29.86 in 10.0 mi SSE 6.9 mph - N/A   Clear
4:35 AM 60.8 °F - 55.4 °F 82% 29.86 in 10.0 mi SSE 4.6 mph - N/A   Clear
4:55 AM 60.8 °F - 55.4 °F 82% 29.86 in 10.0 mi South 4.6 mph - N/A   Clear
5:15 AM 60.8 °F - 57.2 °F 88% 29.87 in 10.0 mi SSE 4.6 mph - N/A   Clear
5:35 AM 60.8 °F - 57.2 °F 88% 29.88 in 10.0 mi South 3.5 mph - N/A   Scattered Clouds
5:55 AM 60.8 °F - 57.2 °F 88% 29.89 in 10.0 mi South 4.6 mph - N/A   Mostly Cloudy
6:15 AM 60.8 °F - 57.2 °F 88% 29.95 in 10.0 mi NNW 6.9 mph - N/A   Overcast
6:35 AM 60.8 °F - 57.2 °F 88% 29.95 in 10.0 mi NW 3.5 mph - N/A   Overcast
6:55 AM 60.8 °F - 57.2 °F 88% 29.95 in 10.0 mi Calm Calm - N/A   Overcast
7:15 AM 60.8 °F - 57.2 °F 88% 29.97 in 10.0 mi Calm Calm - N/A   Overcast
7:35 AM 60.8 °F - 59.0 °F 94% 29.98 in 10.0 mi Calm Calm - N/A   Overcast
7:55 AM 60.8 °F - 59.0 °F 94% 29.99 in 8.0 mi Calm Calm - N/A   Overcast
8:15 AM 60.8 °F - 59.0 °F 94% 29.99 in 2.5 mi Calm Calm - N/A   Overcast
8:35 AM 62.6 °F - 60.8 °F 94% 29.99 in 3.0 mi SSE 5.8 mph - N/A   Overcast
8:55 AM 62.6 °F - 60.8 °F 94% 29.99 in 3.0 mi SE 8.1 mph - N/A   Overcast
9:15 AM 62.6 °F - 60.8 °F 94% 29.99 in 5.0 mi SE 4.6 mph - N/A   Overcast
9:35 AM 62.6 °F - 60.8 °F 94% 30.00 in 8.0 mi SSE 8.1 mph - N/A   Overcast
9:55 AM 64.4 °F - 60.8 °F 88% 29.99 in 9.0 mi SSE 6.9 mph - N/A   Overcast
10:15 AM 66.2 °F - 60.8 °F 83% 29.99 in 10.0 mi South 8.1 mph - N/A   Overcast
10:35 AM 68.0 °F - 62.6 °F 83% 30.00 in 10.0 mi South 4.6 mph - N/A   Overcast
10:55 AM 69.8 °F - 62.6 °F 78% 30.00 in 10.0 mi SSE 6.9 mph - N/A   Overcast
11:15 AM 69.8 °F - 62.6 °F 78% 30.00 in 10.0 mi South 11.5 mph 17.3 mph N/A   Overcast
11:35 AM 69.8 °F - 62.6 °F 78% 30.00 in 10.0 mi South 9.2 mph 17.3 mph N/A   Overcast
11:55 AM 71.6 °F - 62.6 °F 73% 29.99 in 10.0 mi SSE 10.4 mph - N/A   Overcast
12:15 PM 71.6 °F - 62.6 °F 73% 29.99 in 10.0 mi South 9.2 mph - N/A   Overcast
12:35 PM 73.4 °F - 62.6 °F 69% 29.98 in 10.0 mi South 9.2 mph - N/A   Mostly Cloudy
12:55 PM 73.4 °F - 64.4 °F 73% 29.96 in 10.0 mi South 10.4 mph 20.7 mph N/A   Mostly Cloudy
1:15 PM 75.2 °F - 62.6 °F 65% 29.95 in 10.0 mi South 11.5 mph 20.7 mph N/A   Scattered Clouds
1:35 PM 75.2 °F - 62.6 °F 65% 29.95 in 10.0 mi SW 11.5 mph 17.3 mph N/A   Mostly Cloudy
1:55 PM 75.2 °F - 62.6 °F 65% 29.95 in 10.0 mi SW 9.2 mph 18.4 mph N/A   Overcast
2:15 PM 75.2 °F - 62.6 °F 65% 29.94 in 10.0 mi SW 8.1 mph 16.1 mph N/A   Overcast
2:35 PM 66.2 °F - 60.8 °F 83% 29.96 in 10.0 mi West 8.1 mph - N/A   Overcast
2:55 PM 64.4 °F - 57.2 °F 77% 29.97 in 10.0 mi NW 13.8 mph 17.3 mph N/A   Overcast
3:15 PM 62.6 °F - 55.4 °F 77% 29.97 in 10.0 mi WNW 11.5 mph 17.3 mph N/A   Mostly Cloudy
3:35 PM 62.6 °F - 55.4 °F 77% 29.97 in 10.0 mi West 8.1 mph - N/A   Mostly Cloudy
3:55 PM 60.8 °F - 55.4 °F 82% 29.97 in 10.0 mi NW 11.5 mph - N/A   Mostly Cloudy
4:15 PM 60.8 °F - 55.4 °F 82% 29.97 in 10.0 mi WNW 10.4 mph - N/A   Overcast
4:35 PM 60.8 °F - 53.6 °F 77% 29.97 in 10.0 mi NW 8.1 mph - N/A   Overcast
4:55 PM 59.0 °F - 53.6 °F 82% 29.97 in 10.0 mi NNW 12.7 mph - N/A   Overcast
5:15 PM 57.2 °F - 51.8 °F 82% 29.98 in 10.0 mi NW 9.2 mph - N/A   Overcast
5:35 PM 57.2 °F - 51.8 °F 82% 29.99 in 10.0 mi WNW 12.7 mph - N/A   Overcast
5:55 PM 55.4 °F - 50.0 °F 82% 29.99 in 10.0 mi WNW 12.7 mph 18.4 mph N/A   Overcast
6:15 PM 53.6 °F - 48.2 °F 82% 30.00 in 10.0 mi NW 12.7 mph 21.9 mph N/A   Overcast
6:35 PM 53.6 °F - 48.2 °F 82% 30.01 in 10.0 mi NW 10.4 mph - N/A   Overcast
6:55 PM 51.8 °F - 46.4 °F 82% 30.01 in 10.0 mi NNW 12.7 mph 16.1 mph N/A   Overcast
7:15 PM 51.8 °F - 46.4 °F 82% 30.02 in 10.0 mi NW 12.7 mph 17.3 mph N/A   Overcast
7:35 PM 50.0 °F - 46.4 °F 87% 30.02 in 10.0 mi NNW 11.5 mph 20.7 mph N/A   Overcast
7:55 PM 50.0 °F - 44.6 °F 82% 30.04 in 10.0 mi NNW 10.4 mph 16.1 mph N/A   Overcast
8:15 PM 48.2 °F - 44.6 °F 87% 30.04 in 10.0 mi NW 11.5 mph 20.7 mph N/A   Overcast
8:35 PM 48.2 °F - 42.8 °F 82% 30.05 in 10.0 mi NW 11.5 mph 16.1 mph N/A   Overcast
8:55 PM 48.2 °F - 42.8 °F 82% 30.06 in 10.0 mi NNW 11.5 mph - N/A   Overcast
9:15 PM 48.2 °F - 42.8 °F 82% 30.07 in 10.0 mi NNW 13.8 mph - N/A   Overcast
9:35 PM 46.4 °F 40.4 °F 42.8 °F 87% 30.07 in 10.0 mi NW 13.8 mph 18.4 mph N/A   Overcast
9:55 PM 46.4 °F 41.5 °F 42.8 °F 87% 30.09 in 10.0 mi NNW 10.4 mph 18.4 mph N/A   Overcast
10:15 PM 46.4 °F 41.9 °F 42.8 °F 87% 30.09 in 10.0 mi NNW 9.2 mph - N/A   Overcast
10:35 PM 46.4 °F 41.1 °F 42.8 °F 87% 30.10 in 10.0 mi NW 11.5 mph - N/A   Overcast
10:55 PM 46.4 °F 41.1 °F 42.8 °F 87% 30.10 in 10.0 mi NNW 11.5 mph 19.6 mph N/A   Overcast
11:15 PM 46.4 °F 40.4 °F 41.0 °F 81% 30.12 in 10.0 mi NW 13.8 mph - N/A   Overcast
11:35 PM 46.4 °F 40.7 °F 41.0 °F 81% 30.13 in 10.0 mi NNW 12.7 mph 20.7 mph N/A   Overcast
11:55 PM 46.4 °F 40.7 °F 41.0 °F 81% 30.13 in 10.0 mi NW 12.7 mph 24.2 mph N/A   Overcast